TimeEST,TemperatureF,Dew PointF,Humidity,Sea Level PressureIn,VisibilityMPH,Wind Direction,Wind SpeedMPH,Gust SpeedMPH,PrecipitationIn,Events,Conditions,WindDirDegrees,DateUTC
12:04 AM,53.6,51.8,94,30.18,10.0,South,9.2,-,N/A,,Overcast,170,2008-12-28 05:04:00
12:23 AM,53.6,51.8,94,30.18,10.0,SSE,6.9,-,N/A,,Overcast,160,2008-12-28 05:23:00
12:43 AM,53.6,51.8,94,30.18,10.0,South,5.8,-,N/A,,Overcast,170,2008-12-28 05:43:00
1:03 AM,55.4,53.6,94,30.19,10.0,South,5.8,21.9,N/A,,Overcast,170,2008-12-28 06:03:00
1:23 AM,55.4,53.6,94,30.18,10.0,SSE,5.8,-,N/A,,Overcast,150,2008-12-28 06:23:00
1:43 AM,55.4,51.8,88,30.18,10.0,South,5.8,21.9,N/A,,Overcast,180,2008-12-28 06:43:00
2:03 AM,53.6,51.8,94,30.17,10.0,South,6.9,-,N/A,,Overcast,170,2008-12-28 07:03:00
2:23 AM,53.6,50.0,88,30.17,10.0,South,6.9,19.6,N/A,,Mostly Cloudy,170,2008-12-28 07:23:00
2:43 AM,53.6,50.0,88,30.18,10.0,South,6.9,-,N/A,,Mostly Cloudy,180,2008-12-28 07:43:00
3:03 AM,53.6,50.0,88,30.17,10.0,South,6.9,16.1,N/A,,Overcast,170,2008-12-28 08:03:00
3:23 AM,53.6,50.0,88,30.16,10.0,SSE,5.8,-,N/A,,Mostly Cloudy,150,2008-12-28 08:23:00
3:43 AM,53.6,50.0,88,30.16,10.0,SSE,5.8,-,N/A,,Mostly Cloudy,150,2008-12-28 08:43:00
4:03 AM,53.6,50.0,88,30.15,10.0,South,10.4,-,N/A,,Scattered Clouds,180,2008-12-28 09:03:00
4:23 AM,53.6,48.2,82,30.14,10.0,South,8.1,18.4,N/A,,Clear,170,2008-12-28 09:23:00
4:44 AM,53.6,48.2,82,30.13,10.0,SE,5.8,-,N/A,,Clear,140,2008-12-28 09:44:00
5:03 AM,53.6,48.2,82,30.11,10.0,SSE,9.2,19.6,N/A,,Clear,160,2008-12-28 10:03:00
5:23 AM,53.6,50.0,88,30.12,10.0,SSE,8.1,23.0,N/A,,Scattered Clouds,160,2008-12-28 10:23:00
5:44 AM,55.4,51.8,88,30.11,10.0,South,11.5,25.3,N/A,,Mostly Cloudy,170,2008-12-28 10:44:00
6:03 AM,55.4,51.8,88,30.12,10.0,SE,5.8,26.5,N/A,,Mostly Cloudy,140,2008-12-28 11:03:00
6:23 AM,55.4,51.8,88,30.13,10.0,South,9.2,20.7,N/A,,Overcast,180,2008-12-28 11:23:00
6:43 AM,55.4,53.6,94,30.14,7.0,SSE,9.2,19.6,N/A,,Drizzle,160,2008-12-28 11:43:00
7:03 AM,53.6,51.8,94,30.13,10.0,SSE,6.9,-,N/A,,Drizzle,150,2008-12-28 12:03:00
7:23 AM,53.6,51.8,94,30.13,10.0,South,8.1,18.4,N/A,,Mostly Cloudy,170,2008-12-28 12:23:00
7:44 AM,55.4,53.6,94,30.14,10.0,South,6.9,18.4,N/A,,Mostly Cloudy,170,2008-12-28 12:44:00
8:03 AM,55.4,53.6,94,30.15,10.0,SSE,4.6,-,N/A,,Overcast,150,2008-12-28 13:03:00
8:23 AM,55.4,53.6,94,30.15,10.0,SSE,5.8,-,N/A,,Mostly Cloudy,160,2008-12-28 13:23:00
8:45 AM,53.6,51.8,94,30.15,10.0,SSE,6.9,-,N/A,Rain,Light Rain,160,2008-12-28 13:45:00
9:03 AM,53.6,51.8,94,30.15,5.0,SSE,8.1,-,0.01,Rain,Light Rain,160,2008-12-28 14:03:00
9:23 AM,53.6,51.8,94,30.14,10.0,SSE,5.8,-,0.01,Rain,Rain,160,2008-12-28 14:23:00
9:43 AM,55.4,53.6,94,30.14,10.0,SE,6.9,-,0.02,Rain,Rain,140,2008-12-28 14:43:00
10:04 AM,55.4,55.4,100,30.15,10.0,SSE,5.8,-,N/A,,Drizzle,150,2008-12-28 15:04:00
10:24 AM,55.4,55.4,100,30.15,10.0,SSE,3.5,-,N/A,,Mostly Cloudy,150,2008-12-28 15:24:00
10:43 AM,55.4,53.6,94,30.15,10.0,SSE,5.8,-,N/A,,Mostly Cloudy,150,2008-12-28 15:43:00
11:03 AM,55.4,53.6,94,30.14,10.0,SE,6.9,-,N/A,,Mostly Cloudy,140,2008-12-28 16:03:00
11:24 AM,55.4,53.6,94,30.14,10.0,SSE,4.6,-,N/A,,Overcast,150,2008-12-28 16:24:00
11:43 AM,55.4,53.6,94,30.13,10.0,SSE,6.9,-,N/A,,Overcast,160,2008-12-28 16:43:00
12:04 PM,55.4,53.6,94,30.13,10.0,Calm,Calm,-,N/A,,Overcast,0,2008-12-28 17:04:00
12:23 PM,55.4,53.6,94,30.11,7.0,SSE,3.5,-,N/A,Rain,Rain,160,2008-12-28 17:23:00
12:43 PM,55.4,53.6,94,30.11,10.0,Calm,Calm,-,N/A,,Overcast,0,2008-12-28 17:43:00
1:03 PM,53.6,51.8,94,30.10,7.0,West,16.1,21.9,N/A,,Light Drizzle,280,2008-12-28 18:03:00
1:23 PM,51.8,48.2,88,30.11,10.0,West,17.3,26.5,N/A,,Overcast,270,2008-12-28 18:23:00
1:43 PM,51.8,46.4,82,30.11,10.0,West,17.3,-,N/A,,Scattered Clouds,270,2008-12-28 18:43:00
2:03 PM,51.8,46.4,82,30.11,10.0,West,18.4,23.0,N/A,,Scattered Clouds,280,2008-12-28 19:03:00
2:23 PM,51.8,46.4,82,30.12,10.0,WNW,23.0,28.8,N/A,,Mostly Cloudy,290,2008-12-28 19:23:00
3:04 PM,51.8,46.4,82,30.11,10.0,West,20.7,-,N/A,,Clear,280,2008-12-28 20:04:00
3:23 PM,48.2,44.6,87,30.13,10.0,West,10.4,-,N/A,,Scattered Clouds,280,2008-12-28 20:23:00
3:43 PM,51.8,46.4,82,30.13,10.0,West,6.9,10.4,N/A,,Mostly Cloudy,260,2008-12-28 20:43:00
4:07 PM,51.8,46.4,82,30.13,10.0,Calm,Calm,-,N/A,,Mostly Cloudy,0,2008-12-28 21:07:00
4:23 PM,51.8,44.6,76,30.12,10.0,Calm,Calm,-,N/A,,Scattered Clouds,0,2008-12-28 21:23:00
5:03 PM,51.8,44.6,76,30.13,10.0,Calm,Calm,-,N/A,,Clear,0,2008-12-28 22:03:00
5:24 PM,48.2,41.0,76,30.13,10.0,NW,4.6,-,N/A,,Clear,310,2008-12-28 22:24:00
5:43 PM,48.2,41.0,76,30.13,10.0,WNW,5.8,-,N/A,,Clear,300,2008-12-28 22:43:00
6:03 PM,48.2,41.0,76,30.14,10.0,West,9.2,-,N/A,,Clear,280,2008-12-28 23:03:00
6:23 PM,46.4,37.4,71,30.14,10.0,WNW,16.1,19.6,N/A,,Clear,290,2008-12-28 23:23:00
6:43 PM,44.6,35.6,71,30.15,10.0,WNW,15.0,18.4,N/A,,Clear,290,2008-12-28 23:43:00
7:04 PM,44.6,35.6,71,30.16,10.0,West,13.8,23.0,N/A,,Clear,280,2008-12-29 00:04:00
7:23 PM,44.6,35.6,71,30.15,10.0,WNW,13.8,20.7,N/A,,Clear,290,2008-12-29 00:23:00
7:43 PM,44.6,35.6,71,30.15,10.0,NW,12.7,20.7,N/A,,Clear,310,2008-12-29 00:43:00
8:03 PM,42.8,35.6,76,30.16,10.0,WNW,4.6,-,N/A,,Clear,300,2008-12-29 01:03:00
8:23 PM,42.8,37.4,81,30.16,10.0,NW,8.1,-,N/A,,Clear,310,2008-12-29 01:23:00
8:43 PM,42.8,37.4,81,30.15,10.0,WNW,8.1,-,N/A,,Clear,300,2008-12-29 01:43:00
9:03 PM,42.8,35.6,76,30.15,10.0,WNW,6.9,-,N/A,,Clear,300,2008-12-29 02:03:00
9:23 PM,42.8,37.4,81,30.15,10.0,WNW,9.2,-,N/A,,Clear,290,2008-12-29 02:23:00
10:03 PM,42.8,37.4,81,30.15,10.0,NW,3.5,-,N/A,,Clear,310,2008-12-29 03:03:00
10:24 PM,41.0,37.4,87,30.15,10.0,NW,5.8,-,N/A,,Clear,310,2008-12-29 03:24:00
11:03 PM,42.8,37.4,81,30.16,10.0,Calm,Calm,-,N/A,,Clear,0,2008-12-29 04:03:00
11:25 PM,42.8,37.4,81,30.15,10.0,WNW,11.5,-,N/A,,Clear,290,2008-12-29 04:25:00
11:43 PM,41.0,35.6,81,30.15,10.0,NW,11.5,19.6,N/A,,Clear,310,2008-12-29 04:43:00